Year,Month,Day,Hour,Minute,Value (Times are PST for temperature in C)
2019,03,20,00,00,15.00
2019,03,20,00,01,15.00
2019,03,20,00,02,15.00
2019,03,20,00,03,15.00
2019,03,20,00,04,15.00
2019,03,20,00,05,15.00
2019,03,20,00,06,15.10
2019,03,20,00,07,15.10
2019,03,20,00,08,15.10
2019,03,20,00,09,15.00
2019,03,20,00,10,15.00
2019,03,20,00,11,15.10
2019,03,20,00,12,15.10
2019,03,20,00,13,15.10
2019,03,20,00,14,15.20
2019,03,20,00,15,15.30
2019,03,20,00,16,15.30
2019,03,20,00,17,15.40
2019,03,20,00,18,15.40
2019,03,20,00,19,15.40
2019,03,20,00,20,15.50
2019,03,20,00,21,15.50
2019,03,20,00,22,15.50
2019,03,20,00,23,15.50
2019,03,20,00,24,15.50
2019,03,20,00,25,15.60
2019,03,20,00,26,15.60
2019,03,20,00,27,15.60
2019,03,20,00,28,15.60
2019,03,20,00,29,15.60
2019,03,20,00,30,15.60
2019,03,20,00,31,15.60
2019,03,20,00,32,15.60
2019,03,20,00,33,15.60
2019,03,20,00,34,15.50
2019,03,20,00,35,15.60
2019,03,20,00,36,15.60
2019,03,20,00,37,15.60
2019,03,20,00,38,15.50
2019,03,20,00,39,15.50
2019,03,20,00,40,15.50
2019,03,20,00,41,15.50
2019,03,20,00,42,15.40
2019,03,20,00,43,15.40
2019,03,20,00,44,15.40
2019,03,20,00,45,15.40
2019,03,20,00,46,15.40
2019,03,20,00,47,15.40
2019,03,20,00,48,15.40
2019,03,20,00,49,15.40
2019,03,20,00,50,15.40
2019,03,20,00,51,15.40
2019,03,20,00,52,15.50
2019,03,20,00,53,15.50
2019,03,20,00,54,15.50
2019,03,20,00,55,15.60
2019,03,20,00,56,15.60
2019,03,20,00,57,15.60
2019,03,20,00,58,15.60
2019,03,20,00,59,15.70
2019,03,20,01,00,15.70
2019,03,20,01,01,15.70
2019,03,20,01,02,15.80
2019,03,20,01,03,15.80
2019,03,20,01,04,15.80
2019,03,20,01,05,15.80
2019,03,20,01,06,15.80
2019,03,20,01,07,15.80
2019,03,20,01,08,15.90
2019,03,20,01,09,15.90
2019,03,20,01,10,15.90
2019,03,20,01,11,15.90
2019,03,20,01,12,15.90
2019,03,20,01,13,15.90
2019,03,20,01,14,15.90
2019,03,20,01,15,15.90
2019,03,20,01,16,15.90
2019,03,20,01,17,16.30
2019,03,20,01,18,16.30
2019,03,20,01,19,16.40
2019,03,20,01,20,16.40
2019,03,20,01,21,16.40
2019,03,20,01,22,16.30
2019,03,20,01,23,16.30
2019,03,20,01,24,16.30
2019,03,20,01,25,16.30
2019,03,20,01,26,16.30
2019,03,20,01,27,16.30
2019,03,20,01,28,16.30
2019,03,20,01,29,16.30
2019,03,20,01,30,16.30
2019,03,20,01,31,16.30
2019,03,20,01,32,16.40
2019,03,20,01,33,16.40
2019,03,20,01,34,16.30
2019,03,20,01,35,16.30
2019,03,20,01,36,16.20
2019,03,20,01,37,16.20
2019,03,20,01,38,16.20
2019,03,20,01,39,16.20
2019,03,20,01,40,16.30
2019,03,20,01,41,16.30
2019,03,20,01,42,16.30
2019,03,20,01,43,16.30
2019,03,20,01,44,16.20
2019,03,20,01,45,16.20
2019,03,20,01,46,16.20
2019,03,20,01,47,16.20
2019,03,20,01,48,16.20
2019,03,20,01,49,16.20
2019,03,20,01,50,16.20
2019,03,20,01,51,16.20
2019,03,20,01,52,16.20
2019,03,20,01,53,16.10
2019,03,20,01,54,16.10
2019,03,20,01,55,16.00
2019,03,20,01,56,16.00
2019,03,20,01,57,16.00
2019,03,20,01,58,16.00
2019,03,20,01,59,15.90
2019,03,20,02,00,15.90
2019,03,20,02,01,15.90
2019,03,20,02,02,15.90
2019,03,20,02,03,15.90
2019,03,20,02,04,15.90
2019,03,20,02,05,16.00
2019,03,20,02,06,16.00
2019,03,20,02,07,15.90
2019,03,20,02,08,16.00
2019,03,20,02,09,16.00
2019,03,20,02,10,15.90
2019,03,20,02,11,15.90
2019,03,20,02,12,15.90
2019,03,20,02,13,15.90
2019,03,20,02,14,15.90
2019,03,20,02,15,16.00
2019,03,20,02,16,16.00
2019,03,20,02,17,16.10
2019,03,20,02,18,16.10
2019,03,20,02,19,16.10
2019,03,20,02,20,16.10
2019,03,20,02,21,16.20
2019,03,20,02,22,16.20
2019,03,20,02,23,16.10
2019,03,20,02,24,16.10
2019,03,20,02,25,16.10
2019,03,20,02,26,16.10
2019,03,20,02,27,16.00
2019,03,20,02,28,16.00
2019,03,20,02,29,15.90
2019,03,20,02,30,15.90
2019,03,20,02,31,15.90
2019,03,20,02,32,15.80
2019,03,20,02,33,15.80
2019,03,20,02,34,15.80
2019,03,20,02,35,15.70
2019,03,20,02,36,15.70
2019,03,20,02,37,15.70
2019,03,20,02,38,15.70
2019,03,20,02,39,15.70
2019,03,20,02,40,15.70
2019,03,20,02,41,15.70
2019,03,20,02,42,15.60
2019,03,20,02,43,15.60
2019,03,20,02,44,15.60
2019,03,20,02,45,15.60
2019,03,20,02,46,15.60
2019,03,20,02,47,15.60
2019,03,20,02,48,15.60
2019,03,20,02,49,15.60
2019,03,20,02,50,15.60
2019,03,20,02,51,15.60
2019,03,20,02,52,15.50
2019,03,20,02,53,15.50
2019,03,20,02,54,15.50
2019,03,20,02,55,15.50
2019,03,20,02,56,15.50
2019,03,20,02,57,15.50
2019,03,20,02,58,15.50
2019,03,20,02,59,15.50
2019,03,20,03,00,15.40
2019,03,20,03,01,15.40
2019,03,20,03,02,15.40
2019,03,20,03,03,15.30
2019,03,20,03,04,15.30
2019,03,20,03,05,15.20
2019,03,20,03,06,15.20
2019,03,20,03,07,15.10
2019,03,20,03,08,14.90
2019,03,20,03,09,14.80
2019,03,20,03,10,14.60
2019,03,20,03,11,14.40
2019,03,20,03,12,14.30
2019,03,20,03,13,14.10
2019,03,20,03,14,13.90
2019,03,20,03,15,13.80
2019,03,20,03,16,13.70
2019,03,20,03,17,13.60
2019,03,20,03,18,13.50
2019,03,20,03,19,13.40
2019,03,20,03,20,13.30
2019,03,20,03,21,13.20
2019,03,20,03,22,13.10
2019,03,20,03,23,13.10
2019,03,20,03,24,12.90
2019,03,20,03,25,12.90
2019,03,20,03,26,12.80
2019,03,20,03,27,12.70
2019,03,20,03,28,12.60
2019,03,20,03,29,12.50
2019,03,20,03,30,12.40
2019,03,20,03,31,12.30
2019,03,20,03,32,12.20
2019,03,20,03,33,12.20
2019,03,20,03,34,12.10
2019,03,20,03,35,12.00
2019,03,20,03,36,11.90
2019,03,20,03,37,11.80
2019,03,20,03,38,11.70
2019,03,20,03,39,11.70
2019,03,20,03,40,11.60
2019,03,20,03,41,11.50
2019,03,20,03,42,11.50
2019,03,20,03,43,11.40
2019,03,20,03,44,11.40
2019,03,20,03,45,11.30
2019,03,20,03,46,11.30
2019,03,20,03,47,11.10
2019,03,20,03,48,11.10
2019,03,20,03,49,11.00
2019,03,20,03,50,10.90
2019,03,20,03,51,10.90
2019,03,20,03,52,10.90
2019,03,20,03,53,10.80
2019,03,20,03,54,10.80
2019,03,20,03,55,10.80
2019,03,20,03,56,10.70
2019,03,20,03,57,10.70
2019,03,20,03,58,10.60
2019,03,20,03,59,10.60
2019,03,20,04,00,10.60
2019,03,20,04,01,10.60
2019,03,20,04,02,10.50
2019,03,20,04,03,10.50
2019,03,20,04,04,10.50
2019,03,20,04,05,10.40
2019,03,20,04,06,10.40
2019,03,20,04,07,10.40
2019,03,20,04,08,10.40
2019,03,20,04,09,10.40
2019,03,20,04,10,10.30
2019,03,20,04,11,10.30
2019,03,20,04,12,10.30
2019,03,20,04,13,10.30
2019,03,20,04,14,10.30
2019,03,20,04,15,10.30
2019,03,20,04,16,10.30
2019,03,20,04,17,10.20
2019,03,20,04,18,10.20
2019,03,20,04,19,10.20
2019,03,20,04,20,10.10
2019,03,20,04,21,10.10
2019,03,20,04,22,10.10
2019,03,20,04,23,10.00
2019,03,20,04,24,10.00
2019,03,20,04,25,9.90
2019,03,20,04,26,9.90
2019,03,20,04,27,9.90
2019,03,20,04,28,9.80
2019,03,20,04,29,9.80
2019,03,20,04,30,9.80
2019,03,20,04,31,9.70
2019,03,20,04,32,9.70
2019,03,20,04,33,9.70
2019,03,20,04,34,9.70
2019,03,20,04,35,9.60
2019,03,20,04,36,9.60
2019,03,20,04,37,9.60
2019,03,20,04,38,9.60
2019,03,20,04,39,9.50
2019,03,20,04,40,9.50
2019,03,20,04,41,9.50
2019,03,20,04,42,9.50
2019,03,20,04,43,9.50
2019,03,20,04,44,9.50
2019,03,20,04,45,9.40
2019,03,20,04,46,9.40
2019,03,20,04,47,9.40
2019,03,20,04,48,9.50
2019,03,20,04,49,9.60
2019,03,20,04,50,9.70
2019,03,20,04,51,9.70
2019,03,20,04,52,9.80
2019,03,20,04,53,9.90
2019,03,20,04,54,10.00
2019,03,20,04,55,10.00
2019,03,20,04,56,10.10
2019,03,20,04,57,10.10
2019,03,20,04,58,10.20
2019,03,20,04,59,10.30
2019,03,20,05,00,10.40
2019,03,20,05,01,10.50
2019,03,20,05,02,10.70
2019,03,20,05,03,10.90
2019,03,20,05,04,11.00
2019,03,20,05,05,11.10
2019,03,20,05,06,11.20
2019,03,20,05,07,11.20
2019,03,20,05,08,11.30
2019,03,20,05,09,11.30
2019,03,20,05,10,11.40
2019,03,20,05,11,11.40
2019,03,20,05,12,11.50
2019,03,20,05,13,11.50
2019,03,20,05,14,11.50
2019,03,20,05,15,11.60
2019,03,20,05,16,11.60
2019,03,20,05,17,11.60
2019,03,20,05,18,11.60
2019,03,20,05,19,11.60
2019,03,20,05,20,11.60
2019,03,20,05,21,11.50
2019,03,20,05,22,11.40
2019,03,20,05,23,11.40
2019,03,20,05,24,11.30
2019,03,20,05,25,11.30
2019,03,20,05,26,11.20
2019,03,20,05,27,11.20
2019,03,20,05,28,11.10
2019,03,20,05,29,10.90
2019,03,20,05,30,10.80
2019,03,20,05,31,10.60
2019,03,20,05,32,10.50
2019,03,20,05,33,10.30
2019,03,20,05,34,10.30
2019,03,20,05,35,10.20
2019,03,20,05,36,10.20
2019,03,20,05,37,10.10
2019,03,20,05,38,10.10
2019,03,20,05,39,10.10
2019,03,20,05,40,10.10
2019,03,20,05,41,10.00
2019,03,20,05,42,10.00
2019,03,20,05,43,9.90
2019,03,20,05,44,9.80
2019,03,20,05,45,9.80
2019,03,20,05,46,9.70
2019,03,20,05,47,9.70
2019,03,20,05,48,9.60
2019,03,20,05,49,9.60
2019,03,20,05,50,9.50
2019,03,20,05,51,9.50
2019,03,20,05,52,9.50
2019,03,20,05,53,9.50
2019,03,20,05,54,9.50
2019,03,20,05,55,9.50
2019,03,20,05,56,9.40
2019,03,20,05,57,9.40
2019,03,20,05,58,9.40
2019,03,20,05,59,9.40
2019,03,20,06,00,9.30
2019,03,20,06,01,9.30
2019,03,20,06,02,9.30
2019,03,20,06,03,9.30
2019,03,20,06,04,9.20
2019,03,20,06,05,9.20
2019,03,20,06,06,9.20
2019,03,20,06,07,9.10
2019,03,20,06,08,9.10
2019,03,20,06,09,9.10
2019,03,20,06,10,9.10
2019,03,20,06,11,9.00
2019,03,20,06,12,8.90
2019,03,20,06,13,8.90
2019,03,20,06,14,8.80
2019,03,20,06,15,8.80
2019,03,20,06,16,8.70
2019,03,20,06,17,8.70
2019,03,20,06,18,8.60
2019,03,20,06,19,8.60
2019,03,20,06,20,8.60
2019,03,20,06,21,8.60
2019,03,20,06,22,8.50
2019,03,20,06,23,8.50
2019,03,20,06,24,8.60
2019,03,20,06,25,8.60
2019,03,20,06,26,8.60
2019,03,20,06,27,8.60
2019,03,20,06,28,8.50
2019,03,20,06,29,8.50
2019,03,20,06,30,8.50
2019,03,20,06,31,8.50
2019,03,20,06,32,8.40
2019,03,20,06,33,8.40
2019,03,20,06,34,8.30
2019,03,20,06,35,8.30
2019,03,20,06,36,8.40
2019,03,20,06,37,8.40
2019,03,20,06,38,8.30
2019,03,20,06,39,8.30
2019,03,20,06,40,8.40
2019,03,20,06,41,8.40
2019,03,20,06,42,8.50
2019,03,20,06,43,8.50
2019,03,20,06,44,8.50
2019,03,20,06,45,8.60
2019,03,20,06,46,8.70
2019,03,20,06,47,8.80
2019,03,20,06,48,8.80
2019,03,20,06,49,8.90
2019,03,20,06,50,9.00
2019,03,20,06,51,9.20
2019,03,20,06,52,9.30
2019,03,20,06,53,9.40
2019,03,20,06,54,9.50
2019,03,20,06,55,9.60
2019,03,20,06,56,9.60
2019,03,20,06,57,9.70
2019,03,20,06,58,9.70
2019,03,20,06,59,9.80
2019,03,20,07,00,9.80
2019,03,20,07,01,9.80
2019,03,20,07,02,9.80
2019,03,20,07,03,9.90
2019,03,20,07,04,9.80
2019,03,20,07,05,9.80
2019,03,20,07,06,9.80
2019,03,20,07,07,9.80
2019,03,20,07,08,9.70
2019,03,20,07,09,9.70
2019,03,20,07,10,9.60
2019,03,20,07,11,9.50
2019,03,20,07,12,9.50
2019,03,20,07,13,9.40
2019,03,20,07,14,9.40
2019,03,20,07,15,9.30
2019,03,20,07,16,9.30
2019,03,20,07,17,9.20
2019,03,20,07,18,9.20
2019,03,20,07,19,9.10
2019,03,20,07,20,9.00
2019,03,20,07,21,9.00
2019,03,20,07,22,9.00
2019,03,20,07,23,9.00
2019,03,20,07,24,9.00
2019,03,20,07,25,9.00
2019,03,20,07,26,9.00
2019,03,20,07,27,9.00
2019,03,20,07,28,9.10
2019,03,20,07,29,9.10
2019,03,20,07,30,9.20
2019,03,20,07,31,9.30
2019,03,20,07,32,9.30
2019,03,20,07,33,9.40
2019,03,20,07,34,9.50
2019,03,20,07,35,9.50
2019,03,20,07,36,9.60
2019,03,20,07,37,9.70
2019,03,20,07,38,9.80
2019,03,20,07,39,9.90
2019,03,20,07,40,10.00
2019,03,20,07,41,10.00
2019,03,20,07,42,10.10
2019,03,20,07,43,10.20
2019,03,20,07,44,10.20
2019,03,20,07,45,10.30
2019,03,20,07,46,10.40
2019,03,20,07,47,10.40
2019,03,20,07,48,10.50
2019,03,20,07,49,10.50
2019,03,20,07,50,10.50
2019,03,20,07,51,10.60
2019,03,20,07,52,10.60
2019,03,20,07,53,10.70
2019,03,20,07,54,10.80
2019,03,20,07,55,11.00
2019,03,20,07,56,11.20
2019,03,20,07,57,11.30
2019,03,20,07,58,11.40
2019,03,20,07,59,11.40
2019,03,20,08,00,11.40
2019,03,20,08,01,11.40
2019,03,20,08,02,11.50
2019,03,20,08,03,11.50
2019,03,20,08,04,11.50
2019,03,20,08,05,11.60
2019,03,20,08,06,11.50
2019,03,20,08,07,11.40
2019,03,20,08,08,11.30
2019,03,20,08,09,11.20
2019,03,20,08,10,11.10
2019,03,20,08,11,10.90
2019,03,20,08,12,10.80
2019,03,20,08,13,10.70
2019,03,20,08,14,10.60
2019,03,20,08,15,10.50
2019,03,20,08,16,10.40
2019,03,20,08,17,10.30
2019,03,20,08,18,10.30
2019,03,20,08,19,10.30
2019,03,20,08,20,10.40
2019,03,20,08,21,10.40
2019,03,20,08,22,10.40
2019,03,20,08,23,10.40
2019,03,20,08,24,10.50
2019,03,20,08,25,10.60
2019,03,20,08,26,10.60
2019,03,20,08,27,10.70
2019,03,20,08,28,10.80
2019,03,20,08,29,10.90
2019,03,20,08,30,11.00
2019,03,20,08,31,11.20
2019,03,20,08,32,11.30
2019,03,20,08,33,11.40
2019,03,20,08,34,11.40
2019,03,20,08,35,11.50
2019,03,20,08,36,11.50
2019,03,20,08,37,11.60
2019,03,20,08,38,11.60
2019,03,20,08,39,11.60
2019,03,20,08,40,11.80
2019,03,20,08,41,11.90
2019,03,20,08,42,11.90
2019,03,20,08,43,12.10
2019,03,20,08,44,12.20
2019,03,20,08,45,12.30
2019,03,20,08,46,12.40
2019,03,20,08,47,12.60
2019,03,20,08,48,12.70
2019,03,20,08,49,12.80
2019,03,20,08,50,13.00
2019,03,20,08,51,13.10
2019,03,20,08,52,13.20
2019,03,20,08,53,13.30
2019,03,20,08,54,13.40
2019,03,20,08,55,13.40
2019,03,20,08,56,13.50
2019,03,20,08,57,13.60
2019,03,20,08,58,13.70
2019,03,20,08,59,13.70
2019,03,20,09,00,13.70
2019,03,20,09,01,13.80
2019,03,20,09,02,13.80
2019,03,20,09,03,13.90
2019,03,20,09,04,13.90
2019,03,20,09,05,14.00
2019,03,20,09,06,14.00
2019,03,20,09,07,14.10
2019,03,20,09,08,14.10
2019,03,20,09,09,14.10
2019,03,20,09,10,14.20
2019,03,20,09,11,14.20
2019,03,20,09,12,14.20
2019,03,20,09,13,14.20
2019,03,20,09,14,14.20
2019,03,20,09,15,14.10
2019,03,20,09,16,14.10
2019,03,20,09,17,14.00
2019,03,20,09,18,13.90
2019,03,20,09,19,13.80
2019,03,20,09,20,13.70
2019,03,20,09,21,13.70
2019,03,20,09,22,13.70
2019,03,20,09,23,13.60
2019,03,20,09,24,13.60
2019,03,20,09,25,13.60
2019,03,20,09,26,13.70
2019,03,20,09,27,13.70
2019,03,20,09,28,13.80
2019,03,20,09,29,13.80
2019,03,20,09,30,13.80
2019,03,20,09,31,13.80
2019,03,20,09,32,13.80
2019,03,20,09,33,13.80
2019,03,20,09,34,13.80
2019,03,20,09,35,13.80
2019,03,20,09,36,13.70
2019,03,20,09,37,13.80
2019,03,20,09,38,13.80
2019,03,20,09,39,13.80
2019,03,20,09,40,13.80
2019,03,20,09,41,13.80
2019,03,20,09,42,13.90
2019,03,20,09,43,14.00
2019,03,20,09,44,14.10
2019,03,20,09,45,14.20
2019,03,20,09,46,14.30
2019,03,20,09,47,14.40
2019,03,20,09,48,14.40
2019,03,20,09,49,14.50
2019,03,20,09,50,14.60
2019,03,20,09,51,14.70
2019,03,20,09,52,14.70
2019,03,20,09,53,14.70
2019,03,20,09,54,14.80
2019,03,20,09,55,14.80
2019,03,20,09,56,14.90
2019,03,20,09,57,14.90
2019,03,20,09,58,14.90
2019,03,20,09,59,15.00
2019,03,20,10,00,15.00
2019,03,20,10,01,15.00
2019,03,20,10,02,15.00
2019,03,20,10,03,15.00
2019,03,20,10,04,15.10
2019,03,20,10,05,15.10
2019,03,20,10,06,15.10
2019,03,20,10,07,15.20
2019,03,20,10,08,15.20
2019,03,20,10,09,15.30
2019,03,20,10,10,15.40
2019,03,20,10,11,15.50
2019,03,20,10,12,15.60
2019,03,20,10,13,15.70
2019,03,20,10,14,15.80
2019,03,20,10,15,15.90
2019,03,20,10,16,16.00
2019,03,20,10,17,16.10
2019,03,20,10,18,16.20
2019,03,20,10,19,16.30
2019,03,20,10,20,16.30
2019,03,20,10,21,16.40
2019,03,20,10,22,16.50
2019,03,20,10,23,16.60
2019,03,20,10,24,16.70
2019,03,20,10,25,16.80
2019,03,20,10,26,16.90
2019,03,20,10,27,17.00
2019,03,20,10,28,17.10
2019,03,20,10,29,17.20
2019,03,20,10,30,17.20
2019,03,20,10,31,17.20
2019,03,20,10,32,17.30
2019,03,20,10,33,17.40
2019,03,20,10,34,17.50
2019,03,20,10,35,17.50
2019,03,20,10,36,17.60
2019,03,20,10,37,17.60
2019,03,20,10,38,17.60
2019,03,20,10,39,17.60
2019,03,20,10,40,17.60
2019,03,20,10,41,17.60
2019,03,20,10,42,17.50
2019,03,20,10,43,17.40
2019,03,20,10,44,17.30
2019,03,20,10,45,17.20
2019,03,20,10,46,17.00
2019,03,20,10,47,16.80
2019,03,20,10,48,16.60
2019,03,20,10,49,16.40
2019,03,20,10,50,16.20
2019,03,20,10,51,16.00
2019,03,20,10,52,15.80
2019,03,20,10,53,15.70
2019,03,20,10,54,15.60
2019,03,20,10,55,15.60
2019,03,20,10,56,15.50
2019,03,20,10,57,15.50
2019,03,20,10,58,15.50
2019,03,20,10,59,15.50
2019,03,20,11,00,15.40
2019,03,20,11,01,15.20
2019,03,20,11,02,15.10
2019,03,20,11,03,15.00
2019,03,20,11,04,14.80
2019,03,20,11,05,14.70
2019,03,20,11,06,14.60
2019,03,20,11,07,14.50
2019,03,20,11,08,14.50
2019,03,20,11,09,14.50
2019,03,20,11,10,14.50
2019,03,20,11,11,14.50
2019,03,20,11,12,14.50
2019,03,20,11,13,14.60
2019,03,20,11,14,14.60
2019,03,20,11,15,14.70
2019,03,20,11,16,14.70
2019,03,20,11,17,14.70
2019,03,20,11,18,14.60
2019,03,20,11,19,14.60
2019,03,20,11,20,14.60
2019,03,20,11,21,14.50
2019,03,20,11,22,14.50
2019,03,20,11,23,14.50
2019,03,20,11,24,14.50
2019,03,20,11,25,14.60
2019,03,20,11,26,14.70
2019,03,20,11,27,14.80
2019,03,20,11,28,14.80
2019,03,20,11,29,14.80
2019,03,20,11,30,14.70
2019,03,20,11,31,14.70
2019,03,20,11,32,14.60
2019,03,20,11,33,14.60
2019,03,20,11,34,14.60
2019,03,20,11,35,14.70
2019,03,20,11,36,14.70
2019,03,20,11,37,14.60
2019,03,20,11,38,14.60
2019,03,20,11,39,14.60
2019,03,20,11,40,14.60
2019,03,20,11,41,14.60
2019,03,20,11,42,14.60
2019,03,20,11,43,14.60
2019,03,20,11,44,14.70
2019,03,20,11,45,14.70
2019,03,20,11,46,14.70
2019,03,20,11,47,14.70
2019,03,20,11,48,14.60
2019,03,20,11,49,14.50
2019,03,20,11,50,14.40
2019,03,20,11,51,14.40
2019,03,20,11,52,14.40
2019,03,20,11,53,14.50
2019,03,20,11,54,14.50
2019,03,20,11,55,14.60
2019,03,20,11,56,14.60
2019,03,20,11,57,14.50
2019,03,20,11,58,14.60
2019,03,20,11,59,14.60
2019,03,20,12,00,14.60
2019,03,20,12,01,14.60
2019,03,20,12,02,14.60
2019,03,20,12,03,14.60
2019,03,20,12,04,14.50
2019,03,20,12,05,14.40
2019,03,20,12,06,14.40
2019,03,20,12,07,14.30
2019,03,20,12,08,14.40
2019,03,20,12,09,14.40
2019,03,20,12,10,14.40
2019,03,20,12,11,14.40
2019,03,20,12,12,14.40
2019,03,20,12,13,14.40
2019,03,20,12,14,14.50
2019,03,20,12,15,14.50
2019,03,20,12,16,14.60
2019,03,20,12,17,14.60
2019,03,20,12,18,14.60
2019,03,20,12,19,14.40
2019,03,20,12,20,14.30
2019,03,20,12,21,14.20
2019,03,20,12,22,14.10
2019,03,20,12,23,14.00
2019,03,20,12,24,14.00
2019,03,20,12,25,13.90
2019,03,20,12,26,13.90
2019,03,20,12,27,13.90
2019,03,20,12,28,13.90
2019,03,20,12,29,13.90
2019,03,20,12,30,13.90
2019,03,20,12,31,14.00
2019,03,20,12,32,14.10
2019,03,20,12,33,14.10
2019,03,20,12,34,14.10
2019,03,20,12,35,14.00
2019,03,20,12,36,14.00
2019,03,20,12,37,14.00
2019,03,20,12,38,13.90
2019,03,20,12,39,13.90
2019,03,20,12,40,13.90
2019,03,20,12,41,14.00
2019,03,20,12,42,14.10
2019,03,20,12,43,14.20
2019,03,20,12,44,14.40
2019,03,20,12,45,14.60
2019,03,20,12,46,14.70
2019,03,20,12,47,14.80
2019,03,20,12,48,14.90
2019,03,20,12,49,14.90
2019,03,20,12,50,15.00
2019,03,20,12,51,15.10
2019,03,20,12,52,15.20
2019,03,20,12,53,15.30
2019,03,20,12,54,15.30
2019,03,20,12,55,15.50
2019,03,20,12,56,15.50
2019,03,20,12,57,15.60
2019,03,20,12,58,15.60
2019,03,20,12,59,15.70
2019,03,20,13,00,15.80
2019,03,20,13,01,15.80
2019,03,20,13,02,15.90
2019,03,20,13,03,16.00
2019,03,20,13,04,16.00
2019,03,20,13,05,16.00
2019,03,20,13,06,16.10
2019,03,20,13,07,16.20
2019,03,20,13,08,16.20
2019,03,20,13,09,16.20
2019,03,20,13,10,16.10
2019,03,20,13,11,16.20
2019,03,20,13,12,16.30
2019,03,20,13,13,16.30
2019,03,20,13,14,16.30
2019,03,20,13,15,16.40
2019,03,20,13,16,16.40
2019,03,20,13,17,16.40
2019,03,20,13,18,16.40
2019,03,20,13,19,16.50
2019,03,20,13,20,16.50
2019,03,20,13,21,16.50
2019,03,20,13,22,16.50
2019,03,20,13,23,16.50
2019,03,20,13,24,16.50
2019,03,20,13,25,16.50
2019,03,20,13,26,16.50
2019,03,20,13,27,16.40
2019,03,20,13,28,16.40
2019,03,20,13,29,16.30
2019,03,20,13,30,16.30
2019,03,20,13,31,16.20
2019,03,20,13,32,16.10
2019,03,20,13,33,16.10
2019,03,20,13,34,16.10
2019,03,20,13,35,16.20
2019,03,20,13,36,16.20
2019,03,20,13,37,16.20
2019,03,20,13,38,16.30
2019,03,20,13,39,16.30
2019,03,20,13,40,16.40
2019,03,20,13,41,16.50
2019,03,20,13,42,16.40
2019,03,20,13,43,16.40
2019,03,20,13,44,16.50
2019,03,20,13,45,16.60
2019,03,20,13,46,16.60
2019,03,20,13,47,16.60
2019,03,20,13,48,16.60
2019,03,20,13,49,16.50
2019,03,20,13,50,16.40
2019,03,20,13,51,16.30
2019,03,20,13,52,16.30
2019,03,20,13,53,16.20
2019,03,20,13,54,16.20
2019,03,20,13,55,16.10
2019,03,20,13,56,16.10
2019,03,20,13,57,16.10
2019,03,20,13,58,16.10
2019,03,20,13,59,16.00
2019,03,20,14,00,16.00
2019,03,20,14,01,16.00
2019,03,20,14,02,16.10
2019,03,20,14,03,16.10
2019,03,20,14,04,16.10
2019,03,20,14,05,16.10
2019,03,20,14,06,16.10
2019,03,20,14,07,16.20
2019,03,20,14,08,16.30
2019,03,20,14,09,16.40
2019,03,20,14,10,16.30
2019,03,20,14,11,16.30
2019,03,20,14,12,16.20
2019,03,20,14,13,16.20
2019,03,20,14,14,16.20
2019,03,20,14,15,16.20
2019,03,20,14,16,16.10
2019,03,20,14,17,16.10
2019,03,20,14,18,16.10
2019,03,20,14,19,16.10
2019,03,20,14,20,16.30
2019,03,20,14,21,16.30
2019,03,20,14,22,16.30
2019,03,20,14,23,16.30
2019,03,20,14,24,16.30
2019,03,20,14,25,16.30
2019,03,20,14,26,16.30
2019,03,20,14,27,16.40
2019,03,20,14,28,16.40
2019,03,20,14,29,16.40
2019,03,20,14,30,16.50
2019,03,20,14,31,16.40
2019,03,20,14,32,16.50
2019,03,20,14,33,16.50
2019,03,20,14,34,16.40
2019,03,20,14,35,16.40
2019,03,20,14,36,16.40
2019,03,20,14,37,16.40
2019,03,20,14,38,16.40
2019,03,20,14,39,16.40
2019,03,20,14,40,16.40
2019,03,20,14,41,16.30
2019,03,20,14,42,16.30
2019,03,20,14,43,16.30
2019,03,20,14,44,16.30
2019,03,20,14,45,16.30
2019,03,20,14,46,16.20
2019,03,20,14,47,16.10
2019,03,20,14,48,16.10
2019,03,20,14,49,16.10
2019,03,20,14,50,16.20
2019,03,20,14,51,16.30
2019,03,20,14,52,16.40
2019,03,20,14,53,16.50
2019,03,20,14,54,16.60
2019,03,20,14,55,16.60
2019,03,20,14,56,16.60
2019,03,20,14,57,16.50
2019,03,20,14,58,16.50
2019,03,20,14,59,16.40
2019,03,20,15,00,16.40
2019,03,20,15,01,16.30
2019,03,20,15,02,16.30
2019,03,20,15,03,16.20
2019,03,20,15,04,16.20
2019,03,20,15,05,16.20
2019,03,20,15,06,16.20
2019,03,20,15,07,16.30
2019,03,20,15,08,16.40
2019,03,20,15,09,16.50
2019,03,20,15,10,16.60
2019,03,20,15,11,16.70
2019,03,20,15,12,16.80
2019,03,20,15,13,16.80
2019,03,20,15,14,16.90
2019,03,20,15,15,17.00
2019,03,20,15,16,17.20
2019,03,20,15,17,17.30
2019,03,20,15,18,17.20
2019,03,20,15,19,17.00
2019,03,20,15,20,16.90
2019,03,20,15,21,16.70
2019,03,20,15,22,16.60
2019,03,20,15,23,16.50
2019,03,20,15,24,16.40
2019,03,20,15,25,16.30
2019,03,20,15,26,16.30
2019,03,20,15,27,16.30
2019,03,20,15,28,16.30
2019,03,20,15,29,16.30
2019,03,20,15,30,16.20
2019,03,20,15,31,16.20
2019,03,20,15,32,16.20
2019,03,20,15,33,16.20
2019,03,20,15,34,16.20
2019,03,20,15,35,16.20
2019,03,20,15,36,16.20
2019,03,20,15,37,16.20
2019,03,20,15,38,16.20
2019,03,20,15,39,16.20
2019,03,20,15,40,16.30
2019,03,20,15,41,16.30
2019,03,20,15,42,16.30
2019,03,20,15,43,16.30
2019,03,20,15,44,16.40
2019,03,20,15,45,16.40
2019,03,20,15,46,16.50
2019,03,20,15,47,16.60
2019,03,20,15,48,16.70
2019,03,20,15,49,16.80
2019,03,20,15,50,16.90
2019,03,20,15,51,17.00
2019,03,20,15,52,17.00
2019,03,20,15,53,16.90
2019,03,20,15,54,16.90
2019,03,20,15,55,16.80
2019,03,20,15,56,16.80
2019,03,20,15,57,16.90
2019,03,20,15,58,16.90
2019,03,20,15,59,17.00
2019,03,20,16,00,17.00
2019,03,20,16,01,17.00
2019,03,20,16,02,17.00
2019,03,20,16,03,17.00
2019,03,20,16,04,17.00
2019,03,20,16,05,17.10
2019,03,20,16,06,17.10
2019,03,20,16,07,17.20
2019,03,20,16,08,17.20
2019,03,20,16,09,17.20
2019,03,20,16,10,17.20
2019,03,20,16,11,17.20
2019,03,20,16,12,17.30
2019,03,20,16,13,17.20
2019,03,20,16,14,17.20
2019,03,20,16,15,17.10
2019,03,20,16,16,17.10
2019,03,20,16,17,17.10
2019,03,20,16,18,17.00
2019,03,20,16,19,17.00
2019,03,20,16,20,17.10
2019,03,20,16,21,17.10
2019,03,20,16,22,17.10
2019,03,20,16,23,17.10
2019,03,20,16,24,17.10
2019,03,20,16,25,17.20
2019,03,20,16,26,17.20
2019,03,20,16,27,17.20
2019,03,20,16,28,17.30
2019,03,20,16,29,17.30
2019,03,20,16,30,17.30
2019,03,20,16,31,17.40
2019,03,20,16,32,17.40
2019,03,20,16,33,17.40
2019,03,20,16,34,17.40
2019,03,20,16,35,17.40
2019,03,20,16,36,17.40
2019,03,20,16,37,17.40
2019,03,20,16,38,17.50
2019,03,20,16,39,17.60
2019,03,20,16,40,17.60
2019,03,20,16,41,17.60
2019,03,20,16,42,17.60
2019,03,20,16,43,17.60
2019,03,20,16,44,17.60
2019,03,20,16,45,17.60
2019,03,20,16,46,17.60
2019,03,20,16,47,17.70
2019,03,20,16,48,17.70
2019,03,20,16,49,17.70
2019,03,20,16,50,17.70
2019,03,20,16,51,17.70
2019,03,20,16,52,17.70
2019,03,20,16,53,17.70
2019,03,20,16,54,17.70
2019,03,20,16,55,17.80
2019,03,20,16,56,17.80
2019,03,20,16,57,17.80
2019,03,20,16,58,17.80
2019,03,20,16,59,17.90
2019,03,20,17,00,17.90
2019,03,20,17,01,17.90
2019,03,20,17,02,18.00
2019,03,20,17,03,18.10
2019,03,20,17,04,18.20
2019,03,20,17,05,18.20
2019,03,20,17,06,18.30
2019,03,20,17,07,18.30
2019,03,20,17,08,18.30
2019,03,20,17,09,18.30
2019,03,20,17,10,18.40
2019,03,20,17,11,18.40
2019,03,20,17,12,18.40
2019,03,20,17,13,18.40
2019,03,20,17,14,18.40
2019,03,20,17,15,18.40
2019,03,20,17,16,18.40
2019,03,20,17,17,18.40
2019,03,20,17,18,18.40
2019,03,20,17,19,18.40
2019,03,20,17,20,18.40
2019,03,20,17,21,18.40
2019,03,20,17,22,18.40
2019,03,20,17,23,18.40
2019,03,20,17,24,18.50
2019,03,20,17,25,18.40